Regional Weather Roundup
Issued by NWS

Home | Current Version | Previous Version | Graphics & Text | Print | Product List | Glossary On
Versions: 1 2 3 4 5 6 7 8 9 10 11 12 13 14 15 16 17 18 19 20 21 22 23 24 25 26 27 28 29 30 31 32 33 34 35 36 37 38 39 40 41 42 43 44 45 46 47 48 49 50
279
ASUS45 KPSR 081110
RWRAZ

ARIZONA HOURLY REGIONAL WEATHER ROUNDUP
NATIONAL WEATHER SERVICE PHOENIX AZ
400 AM MST MON FEB 08 2016

NOTE: FAIR INDICATES FEW OR NO CLOUDS BELOW 12,000 FEET WITH NO
SIGNIFICANT WEATHER AND/OR OBSTRUCTIONS TO VISIBILITY.

AZZ001>003-036-081200-
NORTHWEST ARIZONA

CITY           SKY/WX    TMP DP  RH WIND       PRES   REMARKS
BULLHEAD CITY  CLEAR     59  19  21 N31G38    30.30R
KINGMAN        PTCLDY    41  21  44 CALM      30.39S
$$

AZZ004>008-015-016-018-081200-
NORTH CENTRAL ARIZONA

CITY           SKY/WX    TMP DP  RH WIND       PRES   REMARKS
GRAND CANYON   PTCLDY    32  15  49 CALM      30.48R
WILLIAMS       PTCLDY    23  14  68 SW5       30.49R WCI  17
PRESCOTT       PTCLDY    30  20  66 CALM      30.39R
FLAGSTAFF      CLEAR     35  12  38 NE14      30.44R WCI  26
PAYSON         CLEAR     43  14  31 NE8       30.37S
PAGE           PTCLDY    30  22  72 CALM      30.52S
$$

AZZ009>014-017-081200-
NORTHEAST ARIZONA

CITY           SKY/WX    TMP DP  RH WIND       PRES   REMARKS
WINSLOW        PTCLDY    23  16  74 CALM      30.48S
SAINT JOHNS    CLEAR     22  16  78 CALM      30.45R
WINDOW ROCK    CLEAR     24   0  35 CALM      30.46S
SHOW LOW       CLEAR     23  16  74 CALM      30.47R
$$

AZZ023-081200-
GREATER PHOENIX AREA

CITY           SKY/WX    TMP DP  RH WIND       PRES   REMARKS
PHOENIX        PTCLDY    52  30  43 S5        30.15S
BUCKEYE        CLEAR     46  25  42 W3        30.17S
LUKE AFB       CLEAR     59  22  24 NE9       30.15F
DEER VALLEY    CLEAR     57  19  22 NE6       30.16F
SCOTTSDALE     CLEAR     64  16  15 NE6       30.16F
MESA-GATEWAY   CLEAR     43  32  65 S7        30.16S
$$

AZZ027-028-081200-
SOUTHWEST MARICOPA COUNTY AND PINAL COUNTY

CITY           SKY/WX    TMP DP  RH WIND       PRES   REMARKS
CASA GRANDE    CLEAR     46  25  42 CALM      30.18R
GILA BEND      FAIR      55  24  30 E3        30.13S
$$

AZZ503-504-507>509-081200-
SOUTHEAST ARIZONA

CITY           SKY/WX    TMP DP  RH WIND       PRES   REMARKS
TUCSON         CLEAR     42  22  44 CALM      30.21R
DAVIS-MONTHAN  CLEAR     44  21  40 E3        30.19R
NOGALES        CLEAR     48   9  20 NE9       30.21S
SIERRA VISTA   PTCLDY    42  14  32 S3        30.27S
DOUGLAS        CLEAR     30  13  49 N9        30.26S WCI  22
SAFFORD        CLEAR     34  20  56 SE7       30.29R WCI  28
$$

AZZ020-021-025-026-031-081200-
SOUTHWEST ARIZONA

CITY           SKY/WX    TMP DP  RH WIND       PRES   REMARKS
YUMA           CLEAR     66  22  18 N14       30.15R
$$

CAZ031-033-041-043-047-048-061-081200-
SOUTHERN CALIFORNIA

CITY           SKY/WX    TMP DP  RH WIND       PRES   REMARKS
DOWNTOWN L.A.  CLEAR     55  36  48 CALM      30.11F
L.A. AIRPORT   CLEAR     57  33  40 CALM      30.11F
SAN DIEGO      CLEAR     56  34  43 CALM      30.09F
BURBANK        CLEAR     62  23  22 CALM      30.12F
ONTARIO        CLEAR     74  17  11 NE14G35   30.13F
RIVERSIDE      CLEAR     71  21  15 NE10G21   30.16F
PALM SPRINGS   CLEAR     66  24  20 NW5       30.23F
EL CENTRO NAS  CLEAR     52  21  29 W9        30.18S
IMPERIAL       CLEAR     50  25  37 W8        30.16R
BLYTHE         CLEAR     61  21  21 N14       30.20R
NEEDLES        CLEAR     61  19  19 N23G35    30.28S
$$

NVZ020-UTZ003-081200-
SOUTHERN NEVADA-UTAH

CITY           SKY/WX    TMP DP  RH WIND       PRES   REMARKS
LAS VEGAS      CLEAR     52  22  30 NE10      30.41R
SALT LAKE CITY PTCLDY    26  21  81 S5        30.66S WCI  20
$$

NMZ009-TXZ055-081200-
NEW MEXICO-WEST TEXAS

CITY           SKY/WX    TMP DP  RH WIND       PRES   REMARKS
ALBUQUERQUE    CLOUDY    31  19  61 W5        30.42R WCI  26
EL PASO        PTCLDY    38  15  39 N7        30.33R WCI  33
$$


........................KEY........................
SKY/WX - SKY CONDITION/WEATHER
TMP    - TEMPERATURE IN FAHRENHEIT
DP     - DEW POINT IN FAHRENHEIT
RH     - RELATIVE HUMIDITY IN PERCENT
WIND   - DIRECTION AND SPEED IN MILES PER HOUR (MPH)
VRB    - VARIABLE WIND DIRECTION
PRES   - MEAN SEA LEVEL PRESSURE IN INCHES OF MERCURY
         F - FALLING PRESSURE   R - RISING PRESSURE
         S - STEADY PRESSURE
VSB    - VISIBILITY IN MILES
HX     - HEAT INDEX IN FAHRENHEIT
WCI    - WIND CHILL INDEX IN FAHRENHEIT
TC     - TEMPERATURE IN CELSIUS WHICH IS ALSO KNOWN AS
         TEMPERATURE IN CENTIGRADE
AFB    - AIR FORCE BASE
         LUKE AFB IS LUKE AIR FORCE BASE
         DAVIS-MONTHAN IS DAVIS-MONTHAN AIR FORCE BASE
NAS    - NAVAL AIR STATION
         EL CENTRO NAS IS EL CENTRO NAVAL AIR STATION
N/A    - NOT AVAILABLE





USA.gov is the U.S. government's official web portal to all federal, state and local government web resources and services.